SPACEBEE-64 (48627 NORAD) Tracking and Keplerian Element Data

This shows tracking and keplerian element data for the satellite.

Feedback or suggestion? Click here.




ElementValue
Catalog48627
NameSPACEBEE-64
Epoch Orbit2912
Epoch Day215.14121478
Epoch Year2021
RAAN272.8311
Inclination97.2539
Eccentricity0.0013892
Argument of Perigee291.4065
Mean Anonmoly68.5685
Mean Motion15.14909202
Decay Rate2.663E-05
L11 48627U 21006ET 21215.14121478 .00002663 00000-0 14608-3 0 9994
L22 48627 97.2539 272.8311 0013892 291.4065 68.5685 15.14909202 29123

Live tracking and technical data element details for SPACEBEE-64 (NORAD 48627). SPACEBEE-64 can be tracked NOW for your location showing map with azimuth and elevation plus other details from your city location.

Track the satellite on the map from your city or location and see movement details for azimuth, elevation, latitude, longitude, range, height, and movement on the map or in text.







IsCatalogInMostPopularTable: catalog: 48627, numindb: 21
Update: records affected: 1



GetName: 48627 SPACEBEE-64

Hit Count: updated at: Wed, 04 Aug 2021 00:27:28 GMT